TRA64R EHRD-LEBL

Flight info

Callsign TRA64R
Flight time 1h 46m
Altitude 35000
Route WOODY N872 CIV DCT KOVIN DCT DUCRA DCT RESMI DCT DEKOD DCT DISAK DCT DIRMO DCT VALKU DCT ATSUP DCT MINSO DCT DEGOL DCT PPG DCT ALBER
Aircraft A321/M-SDE3FGHIRWY/LB1

Departure

Time 2026-05-06 07:21
Airport Rotterdam The Hague Airport (EHRD)

Arrival

Time 2026-05-06 09:07
Airport Josep Tarradellas Barcelona-El Prat Airport (LEBL)
Time Latitude Longitude Altitude Speed Heading
2026-05-06 06:45 51.95016 4.43507 1 ft 0 kts 326°
2026-05-06 07:17 51.95022 4.43500 1 ft 4 kts 327°
2026-05-06 07:17 51.95066 4.43521 1 ft 11 kts 46°
2026-05-06 07:18 51.95105 4.43565 1 ft 7 kts 359°
2026-05-06 07:18 51.95153 4.43529 1 ft 9 kts 328°
2026-05-06 07:18 51.95208 4.43470 1 ft 10 kts 326°
2026-05-06 07:18 51.95230 4.43371 1 ft 11 kts 246°
2026-05-06 07:19 51.95190 4.43268 1 ft 11 kts 237°
2026-05-06 07:19 51.95151 4.43163 1 ft 11 kts 243°
2026-05-06 07:19 51.95121 4.43063 1 ft 6 kts 245°
2026-05-06 07:19 51.95109 4.43003 1 ft 5 kts 267°
2026-05-06 07:20 51.95124 4.42944 2 ft 6 kts 308°
2026-05-06 07:20 51.95183 4.42874 2 ft 11 kts 327°
2026-05-06 07:20 51.95251 4.42926 2 ft 17 kts 58°
2026-05-06 07:20 51.95356 4.43189 1 ft 57 kts 57°
2026-05-06 07:21 51.95737 4.44145 2 ft 140 kts 57°
2026-05-06 07:21 51.96327 4.45651 531 ft 160 kts 57°
2026-05-06 07:21 51.96892 4.47188 1465 ft 155 kts 57°
2026-05-06 07:21 51.97446 4.48691 1899 ft 161 kts 57°
2026-05-06 07:22 51.98058 4.50344 2051 ft 179 kts 57°
2026-05-06 07:22 51.98728 4.52147 2210 ft 195 kts 58°
2026-05-06 07:22 51.99446 4.54147 2369 ft 216 kts 62°
2026-05-06 07:22 52.00115 4.56415 2525 ft 233 kts 64°
2026-05-06 07:23 52.00706 4.58913 2673 ft 240 kts 79°
2026-05-06 07:23 52.00429 4.61598 2830 ft 252 kts 116°
2026-05-06 07:23 51.99193 4.63647 2993 ft 261 kts 143°
2026-05-06 07:23 51.97574 4.65052 3234 ft 270 kts 152°
2026-05-06 07:24 51.95832 4.66184 4195 ft 271 kts 160°
2026-05-06 07:24 51.93942 4.66543 5051 ft 279 kts 184°
2026-05-06 07:24 51.92053 4.65752 5877 ft 283 kts 198°
2026-05-06 07:24 51.90188 4.64706 6690 ft 285 kts 199°
2026-05-06 07:25 51.88317 4.63633 7495 ft 285 kts 199°
2026-05-06 07:25 51.86431 4.62546 8217 ft 290 kts 199°
2026-05-06 07:25 51.84520 4.61449 8977 ft 293 kts 200°
2026-05-06 07:25 51.82584 4.60339 9678 ft 297 kts 200°
2026-05-06 07:26 51.80635 4.59221 10181 ft 308 kts 200°
2026-05-06 07:26 51.78538 4.58024 10332 ft 331 kts 200°
2026-05-06 07:26 51.76307 4.56759 10683 ft 346 kts 200°
2026-05-06 07:26 51.74016 4.55465 11277 ft 351 kts 200°
2026-05-06 07:27 51.71693 4.54154 11900 ft 356 kts 200°
2026-05-06 07:27 51.69338 4.52825 12523 ft 361 kts 200°
2026-05-06 07:27 51.66956 4.51479 13202 ft 364 kts 200°
2026-05-06 07:27 51.64553 4.50120 13815 ft 368 kts 200°
2026-05-06 07:28 51.62120 4.48743 14385 ft 372 kts 200°
2026-05-06 07:28 51.59666 4.47355 15030 ft 374 kts 200°
2026-05-06 07:28 51.54776 4.44597 16371 ft 375 kts 199°
2026-05-06 07:29 51.52308 4.43211 17015 ft 376 kts 199°
2026-05-06 07:29 51.49831 4.41825 17655 ft 377 kts 199°
2026-05-06 07:29 51.47347 4.40437 18271 ft 378 kts 200°
2026-05-06 07:29 51.44859 4.39048 18791 ft 380 kts 200°
2026-05-06 07:30 51.42349 4.37649 19290 ft 382 kts 200°
2026-05-06 07:30 51.39860 4.36129 19775 ft 384 kts 205°
2026-05-06 07:30 51.37431 4.34283 20229 ft 387 kts 206°
2026-05-06 07:30 51.35024 4.32449 20680 ft 390 kts 206°
2026-05-06 07:31 51.32566 4.30572 21145 ft 393 kts 206°
2026-05-06 07:31 51.30092 4.28684 21610 ft 396 kts 206°
2026-05-06 07:31 51.27596 4.26783 22064 ft 399 kts 206°
2026-05-06 07:31 51.25080 4.24871 22494 ft 402 kts 205°
2026-05-06 07:32 51.22547 4.22951 22922 ft 405 kts 205°
2026-05-06 07:32 51.19991 4.21017 23339 ft 408 kts 205°
2026-05-06 07:32 51.17416 4.19071 23697 ft 411 kts 205°
2026-05-06 07:32 51.14746 4.17411 24054 ft 413 kts 199°
2026-05-06 07:33 51.12020 4.15927 24420 ft 415 kts 199°
2026-05-06 07:33 51.09280 4.14430 24777 ft 417 kts 199°
2026-05-06 07:33 51.06526 4.12922 25151 ft 420 kts 199°
2026-05-06 07:33 51.03758 4.11402 25514 ft 422 kts 198°
2026-05-06 07:34 51.00978 4.09882 25871 ft 424 kts 198°
2026-05-06 07:34 50.98179 4.08357 26227 ft 426 kts 198°
2026-05-06 07:34 50.95366 4.06823 26585 ft 428 kts 198°
2026-05-06 07:34 50.92544 4.05284 26925 ft 431 kts 198°
2026-05-06 07:35 50.89700 4.03734 27270 ft 433 kts 198°
2026-05-06 07:35 50.86847 4.02162 27617 ft 435 kts 199°
2026-05-06 07:35 50.84039 4.00481 27969 ft 438 kts 200°
2026-05-06 07:35 50.81210 3.98670 28293 ft 440 kts 201°
2026-05-06 07:36 50.78380 3.96791 28620 ft 442 kts 201°
2026-05-06 07:36 50.75541 3.94896 28952 ft 444 kts 201°
2026-05-06 07:36 50.72688 3.93011 29255 ft 446 kts 201°
2026-05-06 07:36 50.69810 3.91144 29559 ft 448 kts 201°
2026-05-06 07:37 50.66922 3.89296 29862 ft 449 kts 200°
2026-05-06 07:37 50.64014 3.87452 30121 ft 451 kts 200°
2026-05-06 07:37 50.61096 3.85613 30373 ft 453 kts 200°
2026-05-06 07:37 50.58167 3.83773 30688 ft 453 kts 200°
2026-05-06 07:38 50.55246 3.81909 31077 ft 453 kts 201°
2026-05-06 07:38 50.52348 3.79974 31455 ft 451 kts 202°
2026-05-06 07:38 50.49479 3.77996 31846 ft 450 kts 203°
2026-05-06 07:38 50.46619 3.75997 32239 ft 449 kts 202°
2026-05-06 07:39 50.43770 3.74009 32629 ft 447 kts 203°
2026-05-06 07:39 50.40929 3.72041 33003 ft 446 kts 203°
2026-05-06 07:39 50.38089 3.70100 33398 ft 444 kts 202°
2026-05-06 07:39 50.35252 3.68179 33769 ft 443 kts 203°
2026-05-06 07:40 50.32417 3.66267 34007 ft 444 kts 203°
2026-05-06 07:40 50.30532 3.64997 34177 ft 444 kts 203°
2026-05-06 07:40 50.26775 3.62472 34540 ft 443 kts 203°
2026-05-06 07:40 50.23948 3.60573 34782 ft 443 kts 203°
2026-05-06 07:41 50.19259 3.57409 34869 ft 437 kts 203°
2026-05-06 07:41 50.13680 3.53654 34869 ft 435 kts 203°
2026-05-06 07:42 50.08131 3.49935 34864 ft 432 kts 203°
2026-05-06 07:42 50.02595 3.46242 34874 ft 432 kts 203°
2026-05-06 07:43 49.97067 3.42561 34870 ft 432 kts 203°
2026-05-06 07:43 49.91537 3.38881 34877 ft 432 kts 203°
2026-05-06 07:44 49.86048 3.35242 34877 ft 432 kts 203°
2026-05-06 07:44 49.80518 3.31588 34887 ft 431 kts 203°
2026-05-06 07:45 49.74996 3.27937 34888 ft 431 kts 203°
2026-05-06 07:45 49.69481 3.24305 34882 ft 431 kts 203°
2026-05-06 07:46 49.63962 3.20688 34897 ft 431 kts 202°
2026-05-06 07:46 49.58446 3.17079 34885 ft 431 kts 202°
2026-05-06 07:47 49.52918 3.13465 34898 ft 430 kts 202°
2026-05-06 07:47 49.47498 3.09530 34868 ft 432 kts 212°
2026-05-06 07:48 49.42509 3.04439 34871 ft 433 kts 213°
2026-05-06 07:48 49.37484 2.99329 34871 ft 433 kts 213°
2026-05-06 07:49 49.32450 2.94244 34873 ft 434 kts 213°
2026-05-06 07:49 49.27401 2.89165 34872 ft 434 kts 213°
2026-05-06 07:50 49.22359 2.84083 34888 ft 434 kts 213°
2026-05-06 07:50 49.17318 2.79006 34905 ft 433 kts 213°
2026-05-06 07:51 49.12311 2.73981 34891 ft 433 kts 213°
2026-05-06 07:51 49.07265 2.68936 34913 ft 433 kts 213°
2026-05-06 07:52 49.02213 2.63899 34910 ft 433 kts 213°
2026-05-06 07:52 48.97166 2.58878 34885 ft 434 kts 213°
2026-05-06 07:53 48.92128 2.53873 34885 ft 435 kts 213°
2026-05-06 07:53 48.87041 2.48835 34884 ft 436 kts 213°
2026-05-06 07:54 48.81945 2.43799 34889 ft 437 kts 213°
2026-05-06 07:54 48.76847 2.38765 34898 ft 437 kts 213°
2026-05-06 07:55 48.71748 2.33753 34900 ft 437 kts 213°
2026-05-06 07:55 48.66640 2.28747 34898 ft 437 kts 213°
2026-05-06 07:56 48.61532 2.23752 34895 ft 436 kts 213°
2026-05-06 07:56 48.56276 2.19340 34891 ft 436 kts 200°
2026-05-06 07:57 48.50390 2.17108 34882 ft 436 kts 192°
2026-05-06 07:57 48.44440 2.15195 34879 ft 436 kts 193°
2026-05-06 07:58 48.38533 2.13270 34856 ft 438 kts 192°
2026-05-06 07:58 48.32562 2.11343 34855 ft 439 kts 192°
2026-05-06 07:59 48.26488 2.10472 34852 ft 440 kts 176°
2026-05-06 07:59 48.20414 2.11699 34861 ft 441 kts 172°
2026-05-06 08:00 48.14340 2.12967 34887 ft 440 kts 173°
2026-05-06 08:00 48.08281 2.13447 34906 ft 438 kts 178°
2026-05-06 08:01 48.02198 2.13790 34920 ft 436 kts 178°
2026-05-06 08:01 47.96139 2.14160 34905 ft 436 kts 178°
2026-05-06 08:02 47.90083 2.14534 34907 ft 435 kts 178°
2026-05-06 08:02 47.84034 2.14891 34908 ft 435 kts 178°
2026-05-06 08:03 47.77979 2.15237 34875 ft 435 kts 178°
2026-05-06 08:03 47.71932 2.15583 34875 ft 434 kts 178°
2026-05-06 08:04 47.65886 2.15933 34868 ft 434 kts 178°
2026-05-06 08:04 47.59848 2.16286 34866 ft 434 kts 178°
2026-05-06 08:05 47.53846 2.16642 34860 ft 434 kts 178°
2026-05-06 08:05 47.47809 2.16990 34849 ft 434 kts 178°
2026-05-06 08:06 47.41765 2.17340 34850 ft 435 kts 178°
2026-05-06 08:06 47.35722 2.17683 34854 ft 435 kts 178°
2026-05-06 08:07 47.29668 2.18032 34867 ft 435 kts 178°
2026-05-06 08:07 47.23653 2.18376 34871 ft 434 kts 178°
2026-05-06 08:08 47.17619 2.18726 34869 ft 434 kts 178°
2026-05-06 08:08 47.11585 2.19077 34876 ft 433 kts 176°
2026-05-06 08:09 47.05745 2.21048 34864 ft 433 kts 158°
2026-05-06 08:09 47.00141 2.24368 34863 ft 434 kts 159°
2026-05-06 08:10 46.94569 2.27617 34872 ft 434 kts 159°
2026-05-06 08:10 46.88963 2.30865 34874 ft 433 kts 159°
2026-05-06 08:11 46.83362 2.34110 34880 ft 432 kts 160°
2026-05-06 08:11 46.77772 2.37352 34870 ft 432 kts 159°
2026-05-06 08:12 46.72177 2.40596 34870 ft 432 kts 159°
2026-05-06 08:12 46.66571 2.43838 34859 ft 433 kts 159°
2026-05-06 08:13 46.60969 2.47061 34874 ft 433 kts 160°
2026-05-06 08:13 46.55403 2.50250 34873 ft 432 kts 160°
2026-05-06 08:14 46.49812 2.53454 34881 ft 431 kts 160°
2026-05-06 08:14 46.44257 2.56632 34875 ft 431 kts 160°
2026-05-06 08:15 46.38666 2.59819 34874 ft 432 kts 160°
2026-05-06 08:15 46.33066 2.63010 34876 ft 433 kts 160°
2026-05-06 08:16 46.27461 2.66201 34885 ft 433 kts 160°
2026-05-06 08:16 46.21840 2.69389 34888 ft 433 kts 160°
2026-05-06 08:17 46.16265 2.72541 34906 ft 432 kts 160°
2026-05-06 08:17 46.10676 2.75700 34885 ft 431 kts 160°
2026-05-06 08:18 46.05076 2.78838 34868 ft 432 kts 160°
2026-05-06 08:18 45.99464 2.81986 34875 ft 433 kts 160°
2026-05-06 08:19 45.93816 2.85050 34884 ft 433 kts 161°
2026-05-06 08:19 45.88184 2.87982 34892 ft 433 kts 162°
2026-05-06 08:20 45.82513 2.90925 34900 ft 433 kts 162°
2026-05-06 08:20 45.76841 2.93879 34905 ft 433 kts 164°
2026-05-06 08:21 45.70945 2.95191 34897 ft 428 kts 183°
2026-05-06 08:21 45.64982 2.95005 34881 ft 428 kts 182°
2026-05-06 08:22 45.59058 2.94850 34884 ft 429 kts 182°
2026-05-06 08:22 45.53097 2.94703 34878 ft 429 kts 183°
2026-05-06 08:23 45.47135 2.94550 34893 ft 428 kts 183°
2026-05-06 08:23 45.41183 2.94387 34902 ft 428 kts 183°
2026-05-06 08:24 45.35228 2.94231 34899 ft 427 kts 183°
2026-05-06 08:24 45.29311 2.94072 34900 ft 427 kts 183°
2026-05-06 08:25 45.23365 2.93915 34901 ft 427 kts 183°
2026-05-06 08:25 45.17412 2.93761 34903 ft 427 kts 183°
2026-05-06 08:26 45.11466 2.93607 34903 ft 427 kts 184°
2026-05-06 08:26 45.05559 2.93460 34905 ft 427 kts 184°
2026-05-06 08:27 44.99611 2.93304 34913 ft 427 kts 184°
2026-05-06 08:27 44.93667 2.93147 34912 ft 426 kts 184°
2026-05-06 08:28 44.87734 2.93003 34921 ft 426 kts 184°
2026-05-06 08:28 44.81846 2.92795 34922 ft 425 kts 185°
2026-05-06 08:29 44.75933 2.92350 34926 ft 425 kts 186°
2026-05-06 08:29 44.70035 2.91846 34931 ft 425 kts 186°
2026-05-06 08:30 44.64120 2.91384 34936 ft 425 kts 186°
2026-05-06 08:30 44.58251 2.90961 34937 ft 425 kts 186°
2026-05-06 08:31 44.52347 2.90537 34931 ft 425 kts 186°
2026-05-06 08:31 44.46442 2.90119 34936 ft 424 kts 186°
2026-05-06 08:32 44.40541 2.89693 34938 ft 424 kts 186°
2026-05-06 08:32 44.34646 2.89261 34930 ft 424 kts 187°
2026-05-06 08:33 44.28747 2.88828 34941 ft 424 kts 186°
2026-05-06 08:33 44.22857 2.88407 34939 ft 424 kts 186°
2026-05-06 08:34 44.14066 2.87783 34938 ft 423 kts 187°
2026-05-06 08:35 44.08188 2.87361 34948 ft 423 kts 187°
2026-05-06 08:35 44.02315 2.86947 34951 ft 422 kts 187°
2026-05-06 08:36 43.97428 2.86599 34939 ft 422 kts 187°
2026-05-06 08:36 43.91567 2.86177 34956 ft 421 kts 187°
2026-05-06 08:37 43.85717 2.85758 34962 ft 421 kts 187°
2026-05-06 08:37 43.79868 2.85346 34961 ft 420 kts 187°
2026-05-06 08:38 43.74013 2.85105 34963 ft 422 kts 185°
2026-05-06 08:38 43.68177 2.85248 34966 ft 422 kts 183°
2026-05-06 08:39 43.62305 2.85445 34971 ft 421 kts 184°
2026-05-06 08:39 43.56448 2.85563 34957 ft 420 kts 185°
2026-05-06 08:40 43.50592 2.85637 34971 ft 420 kts 185°
2026-05-06 08:40 43.44753 2.85700 34972 ft 419 kts 185°
2026-05-06 08:41 43.38955 2.85781 34945 ft 419 kts 185°
2026-05-06 08:41 43.33133 2.85878 34969 ft 417 kts 185°
2026-05-06 08:42 43.27340 2.85963 34969 ft 416 kts 185°
2026-05-06 08:42 43.21547 2.86041 34969 ft 415 kts 185°
2026-05-06 08:43 43.15811 2.86118 34965 ft 414 kts 186°
2026-05-06 08:43 43.10045 2.86201 34973 ft 413 kts 186°
2026-05-06 08:44 43.04296 2.86292 34979 ft 413 kts 186°
2026-05-06 08:44 42.98522 2.86376 34794 ft 421 kts 186°
2026-05-06 08:44 42.95625 2.86409 34309 ft 421 kts 186°
2026-05-06 08:45 42.92695 2.86447 33732 ft 419 kts 186°
2026-05-06 08:45 42.89798 2.86495 33197 ft 415 kts 186°
2026-05-06 08:45 42.86925 2.86548 32672 ft 411 kts 187°
2026-05-06 08:45 42.84086 2.86600 32168 ft 406 kts 187°
2026-05-06 08:46 42.81272 2.86644 31661 ft 402 kts 187°
2026-05-06 08:46 42.78488 2.86681 31164 ft 398 kts 187°
2026-05-06 08:46 42.75734 2.86712 30658 ft 394 kts 188°
2026-05-06 08:46 42.73033 2.86485 30139 ft 386 kts 193°
2026-05-06 08:47 42.70371 2.86164 29580 ft 382 kts 193°
2026-05-06 08:47 42.67688 2.85847 29067 ft 377 kts 193°
2026-05-06 08:47 42.65171 2.85555 28591 ft 372 kts 193°
2026-05-06 08:47 42.62611 2.85258 28107 ft 368 kts 193°
2026-05-06 08:48 42.60074 2.84965 27631 ft 363 kts 193°
2026-05-06 08:48 42.57567 2.84676 27149 ft 358 kts 193°
2026-05-06 08:48 42.55099 2.84384 26693 ft 353 kts 194°
2026-05-06 08:48 42.52733 2.83636 25766 ft 350 kts 205°
2026-05-06 08:49 42.50392 2.82569 24852 ft 359 kts 205°
2026-05-06 08:49 42.48010 2.81474 24090 ft 363 kts 205°
2026-05-06 08:49 42.45615 2.80380 23578 ft 360 kts 205°
2026-05-06 08:49 42.43254 2.79310 23075 ft 355 kts 205°
2026-05-06 08:50 42.40931 2.78261 22580 ft 350 kts 204°
2026-05-06 08:50 42.38637 2.77227 22083 ft 345 kts 204°
2026-05-06 08:50 42.36375 2.76208 21571 ft 341 kts 204°
2026-05-06 08:50 42.34140 2.75199 21097 ft 336 kts 204°
2026-05-06 08:51 42.31933 2.74201 20629 ft 333 kts 204°
2026-05-06 08:51 42.29739 2.73214 20176 ft 331 kts 203°
2026-05-06 08:51 42.27557 2.72235 19724 ft 330 kts 203°
2026-05-06 08:51 42.25410 2.71269 19283 ft 330 kts 203°
2026-05-06 08:52 42.23235 2.70288 18851 ft 329 kts 202°
2026-05-06 08:52 42.21064 2.69308 18424 ft 329 kts 202°
2026-05-06 08:52 42.18888 2.68328 17954 ft 329 kts 202°
2026-05-06 08:52 42.16722 2.67354 17472 ft 328 kts 202°
2026-05-06 08:53 42.14554 2.66381 16940 ft 328 kts 202°
2026-05-06 08:53 42.12388 2.65411 16399 ft 328 kts 202°
2026-05-06 08:53 42.10220 2.64443 15895 ft 328 kts 202°
2026-05-06 08:53 42.08053 2.63473 15382 ft 329 kts 202°
2026-05-06 08:54 42.05880 2.62500 14889 ft 330 kts 202°
2026-05-06 08:54 42.03699 2.61522 14395 ft 330 kts 202°
2026-05-06 08:54 42.01521 2.60546 13912 ft 330 kts 202°
2026-05-06 08:54 41.99343 2.59568 13388 ft 330 kts 202°
2026-05-06 08:55 41.97166 2.58594 12851 ft 330 kts 201°
2026-05-06 08:55 41.94991 2.57625 12329 ft 329 kts 201°
2026-05-06 08:55 41.92839 2.56670 11836 ft 329 kts 201°
2026-05-06 08:55 41.90675 2.55713 11382 ft 326 kts 201°
2026-05-06 08:56 41.88522 2.54758 10935 ft 324 kts 202°
2026-05-06 08:56 41.86385 2.53804 10485 ft 322 kts 202°
2026-05-06 08:56 41.84274 2.52861 10100 ft 318 kts 202°
2026-05-06 08:56 41.82188 2.51932 9725 ft 312 kts 202°
2026-05-06 08:57 41.80188 2.51048 9316 ft 292 kts 202°
2026-05-06 08:57 41.78285 2.50209 8922 ft 285 kts 202°
2026-05-06 08:57 41.76455 2.49401 8525 ft 275 kts 202°
2026-05-06 08:57 41.74611 2.48583 8137 ft 275 kts 202°
2026-05-06 08:58 41.72800 2.47780 7965 ft 273 kts 201°
2026-05-06 08:58 41.71024 2.46994 7978 ft 273 kts 202°
2026-05-06 08:58 41.69221 2.46198 7981 ft 273 kts 202°
2026-05-06 08:58 41.67416 2.45400 7981 ft 273 kts 201°
2026-05-06 08:59 41.65608 2.44601 7981 ft 273 kts 202°
2026-05-06 08:59 41.63798 2.43801 7900 ft 273 kts 201°
2026-05-06 08:59 41.61997 2.43004 7771 ft 272 kts 201°
2026-05-06 08:59 41.60194 2.42208 7577 ft 273 kts 201°
2026-05-06 09:00 41.58402 2.41419 7279 ft 270 kts 201°
2026-05-06 09:00 41.56627 2.40640 6982 ft 266 kts 201°
2026-05-06 09:00 41.54879 2.39873 6687 ft 262 kts 201°
2026-05-06 09:00 41.53189 2.39129 6389 ft 257 kts 201°
2026-05-06 09:01 41.51496 2.38385 6080 ft 253 kts 201°
2026-05-06 09:01 41.49830 2.37652 5762 ft 250 kts 201°
2026-05-06 09:01 41.48186 2.36927 5471 ft 247 kts 201°
2026-05-06 09:01 41.46562 2.36213 5170 ft 245 kts 201°
2026-05-06 09:02 41.44945 2.35503 4869 ft 245 kts 201°
2026-05-06 09:02 41.43329 2.34790 4565 ft 244 kts 201°
2026-05-06 09:02 41.41720 2.34083 4253 ft 243 kts 201°
2026-05-06 09:02 41.40140 2.33391 3950 ft 241 kts 201°
2026-05-06 09:03 41.38656 2.32409 3632 ft 234 kts 220°
2026-05-06 09:03 41.37583 2.30851 3355 ft 224 kts 240°
2026-05-06 09:03 41.36916 2.29018 3075 ft 217 kts 247°
2026-05-06 09:03 41.36303 2.27203 2789 ft 213 kts 248°
2026-05-06 09:04 41.35703 2.25431 2504 ft 205 kts 247°
2026-05-06 09:04 41.35128 2.23742 2238 ft 193 kts 246°
2026-05-06 09:04 41.34602 2.22196 1998 ft 172 kts 247°
2026-05-06 09:04 41.34130 2.20809 1754 ft 159 kts 246°
2026-05-06 09:05 41.33690 2.19517 1549 ft 148 kts 246°
2026-05-06 09:05 41.33272 2.18292 1350 ft 144 kts 246°
2026-05-06 09:05 41.32863 2.17089 1151 ft 142 kts 246°
2026-05-06 09:05 41.32453 2.15889 956 ft 143 kts 245°
2026-05-06 09:06 41.32039 2.14688 774 ft 143 kts 246°
2026-05-06 09:06 41.31633 2.13494 587 ft 143 kts 248°
2026-05-06 09:06 41.31218 2.12291 387 ft 143 kts 247°
2026-05-06 09:06 41.30812 2.11081 200 ft 143 kts 250°
2026-05-06 09:07 41.30404 2.09880 34 ft 140 kts 248°
2026-05-06 09:07 41.30053 2.08841 20 ft 97 kts 245°
2026-05-06 09:07 41.29852 2.08244 22 ft 50 kts 246°
2026-05-06 09:07 41.29748 2.07990 18 ft 22 kts 229°
2026-05-06 09:08 41.29637 2.07868 16 ft 9 kts 215°
2026-05-06 09:08 41.29590 2.07825 18 ft 8 kts 215°
2026-05-06 09:08 41.29550 2.07787 16 ft 7 kts 215°
2026-05-06 09:08 41.29516 2.07755 16 ft 5 kts 215°
2026-05-06 09:09 41.29496 2.07736 17 ft 0 kts 216°
2026-05-06 09:09 41.29485 2.07725 16 ft 7 kts 219°
2026-05-06 09:09 41.29418 2.07710 18 ft 12 kts 140°
2026-05-06 09:09 41.29427 2.07810 17 ft 11 kts 65°
2026-05-06 09:10 41.29459 2.07903 15 ft 11 kts 65°
2026-05-06 09:10 41.29446 2.07981 16 ft 3 kts 136°
2026-05-06 09:10 41.29430 2.07987 16 ft 5 kts 180°
2026-05-06 09:10 41.29406 2.07948 16 ft 5 kts 244°
2026-05-06 09:11 41.29400 2.07930 16 ft 0 kts 245°